Stuart, FL

1:50 PM EDT on May 21, 2018 (GMT -0400)
Witham

Weather History for KSUA - February, 2014

Change the Weather History Date:

Wednesday, February 12, 2014

  Actual Average Record
Temperature  
Mean Temperature 72 °F -  
Max Temperature 84 °F 75 °F 84 °F (2014)
Min Temperature 60 °F 54 °F 44 °F (2016)
Cooling Degree Days 7    
Growing Degree Days 22 (Base 50)    
Moisture  
Dew Point 59 °F    
Average Humidity 76    
Maximum Humidity 88    
Minimum Humidity 35    
Precipitation  
Precipitation 0.36 in - - ()
Sea Level Pressure  
Sea Level Pressure 29.94 in    
Wind  
Wind Speed 5 mph (SSW)    
Max Wind Speed 20 mph    
Max Gust Speed 36 mph    
Visibility 8 miles    
Events Rain , Thunderstorm    
Averages and records for this station are not official NWS values.
T = Trace of Precipitation, MM = Missing Value Source: NWS Daily Summary

Daily Weather History Graph

Daily Weather History Graph

Search for Another Location

Airport or City:

Astronomy

Feb. 12, 2014 Rise Set
Actual Time 6:59 AM EST 6:10 PM EST
Civil Twilight 6:35 AM EST 6:34 PM EST
Nautical Twilight 6:08 AM EST 7:02 PM EST
Astronomical Twilight 5:41 AM EST 7:29 PM EST
Moon 4:26 PM EST (2/12) 5:10 AM EST (2/12)
Length of Visible Light 11h 58m
Length of Day
11h 10m
Waxing Gibbous, 95% of the Moon is Illuminated
Feb 12
Waxing Gibbous
Feb 14
Full
Feb 22
Last Quarter
Mar 1
New
Mar 8
First Quarter

Hourly Weather History & Observations

Time (EST) Temp. Heat Index Dew Point Humidity Pressure Visibility Wind Dir Wind Speed Gust Speed Precip Events Conditions
12:15 AM 64.4 °F - 55.4 °F 73% 30.05 in 10.0 mi West 5.8 mph - N/A   Clear
12:35 AM 64.4 °F - 55.4 °F 73% 30.04 in 10.0 mi West 4.6 mph - N/A   Clear
12:55 AM 64.4 °F - 55.4 °F 73% 30.04 in 10.0 mi West 3.5 mph - N/A   Clear
1:15 AM 64.4 °F - 55.4 °F 73% 30.04 in 10.0 mi SW 3.5 mph - N/A   Clear
1:35 AM 64.4 °F - 55.4 °F 73% 30.03 in 10.0 mi SW 3.5 mph - N/A   Clear
1:55 AM 62.6 °F - 55.4 °F 77% 30.03 in 10.0 mi Calm Calm - N/A   Clear
2:15 AM 62.6 °F - 55.4 °F 77% 30.02 in 10.0 mi Calm Calm - N/A   Clear
2:35 AM 60.8 °F - 55.4 °F 82% 30.00 in 10.0 mi Calm Calm - N/A   Clear
2:55 AM 62.6 °F - 55.4 °F 77% 30.00 in 10.0 mi Calm Calm - N/A   Clear
3:15 AM 62.6 °F - 55.4 °F 77% 30.00 in 10.0 mi Calm Calm - N/A   Clear
3:35 AM 60.8 °F - 55.4 °F 82% 30.00 in 10.0 mi Calm Calm - N/A   Clear
3:55 AM 60.8 °F - 55.4 °F 82% 30.00 in 10.0 mi WSW 4.6 mph - N/A   Clear
4:15 AM 60.8 °F - 55.4 °F 82% 30.00 in 10.0 mi Calm Calm - N/A   Clear
4:35 AM 60.8 °F - 55.4 °F 82% 30.00 in 10.0 mi Calm Calm - N/A   Clear
4:55 AM 60.8 °F - 55.4 °F 82% 30.00 in 10.0 mi SSW 3.5 mph - N/A   Clear
5:15 AM 62.6 °F - 57.2 °F 82% 30.00 in 10.0 mi SSW 3.5 mph - N/A   Clear
5:35 AM 60.8 °F - 55.4 °F 82% 30.00 in 10.0 mi Calm Calm - N/A   Clear
5:55 AM 62.6 °F - 57.2 °F 82% 30.00 in 10.0 mi Calm Calm - N/A   Clear
6:15 AM 60.8 °F - 55.4 °F 82% 30.01 in 10.0 mi Calm Calm - N/A   Clear
6:47 AM 62.6 °F - 57.2 °F 82% 30.01 in 10.0 mi Variable 3.5 mph - N/A   Partly Cloudy
7:47 AM 64.4 °F - 59.0 °F 83% 30.03 in 7.0 mi Variable 3.5 mph - N/A   Partly Cloudy
8:47 AM 71.6 °F - 59.0 °F 64% 30.03 in 7.0 mi South 4.6 mph - N/A   Partly Cloudy
9:47 AM 75.2 °F - 64.4 °F 69% 30.03 in 7.0 mi South 11.5 mph - N/A   Partly Cloudy
10:47 AM 78.8 °F - 64.4 °F 61% 30.00 in 7.0 mi South 13.8 mph 20.7 mph N/A   Scattered Clouds
11:47 AM 82.4 °F 82.5 °F 59.0 °F 45% 29.98 in 5.0 mi South 13.8 mph 20.7 mph N/A   Smoke
12:47 PM 82.4 °F 82.0 °F 57.2 °F 42% 29.94 in 7.0 mi SSE 13.8 mph 20.7 mph N/A   Scattered Clouds
1:47 PM 84.2 °F 82.8 °F 53.6 °F 35% 29.89 in 7.0 mi South 15.0 mph 25.3 mph N/A   Mostly Cloudy
2:47 PM 82.4 °F 82.0 °F 57.2 °F 42% 29.87 in 7.0 mi SSE 11.5 mph 20.7 mph N/A   Mostly Cloudy
3:47 PM 80.6 °F 81.8 °F 62.6 °F 54% 29.83 in 7.0 mi SSE 18.4 mph 26.5 mph N/A Thunderstorm Mostly Cloudy
4:47 PM 75.2 °F - 68.0 °F 78% 29.83 in 3.0 mi SSE 6.9 mph - N/A Rain , Thunderstorm Heavy Thunderstorms and Rain
5:05 PM 75.2 °F - 66.2 °F 73% 29.83 in 6.0 mi NW 16.1 mph 26.5 mph N/A Rain , Thunderstorm Light Thunderstorms and Rain
5:26 PM 75.2 °F - 66.2 °F 73% 29.83 in 6.0 mi SSE 8.1 mph 16.1 mph N/A Rain , Thunderstorm Light Thunderstorms and Rain
5:47 PM 75.2 °F - 66.2 °F 73% 29.81 in 6.0 mi SSE 9.2 mph 20.7 mph N/A Rain , Thunderstorm Light Thunderstorms and Rain
6:47 PM 73.4 °F - 66.2 °F 78% 29.84 in 5.0 mi South 11.5 mph 18.4 mph N/A Rain , Thunderstorm Thunderstorms and Rain
8:15 PM 69.8 °F - 64.4 °F 83% 29.86 in 10.0 mi West 8.1 mph - N/A Rain , Thunderstorm Light Thunderstorms and Rain
8:35 PM 71.6 °F - 64.4 °F 78% 29.86 in 7.0 mi West 12.7 mph 35.7 mph 0.01 in Thunderstorm Thunderstorm
8:55 PM 64.4 °F - 59.0 °F 83% 29.92 in 7.0 mi WNW 19.6 mph 29.9 mph 0.01 in Thunderstorm Overcast
9:15 PM 62.6 °F - 59.0 °F 88% 29.92 in 2.0 mi West 11.5 mph 19.6 mph 0.25 in Rain , Thunderstorm Heavy Thunderstorms and Rain
9:35 PM 62.6 °F - 59.0 °F 88% 29.91 in 5.0 mi West 9.2 mph - 0.30 in Rain , Thunderstorm Light Thunderstorms and Rain
9:55 PM 62.6 °F - 59.0 °F 88% 29.90 in 10.0 mi West 6.9 mph - 0.31 in Rain Light Rain
10:15 PM 62.6 °F - 59.0 °F 88% 29.87 in 7.0 mi West 3.5 mph - 0.03 in Rain Rain
10:35 PM 62.6 °F - 59.0 °F 88% 29.85 in 10.0 mi Calm Calm - 0.04 in Rain Light Rain
10:55 PM 62.6 °F - 59.0 °F 88% 29.82 in 10.0 mi Calm Calm - 0.04 in Rain Light Rain
11:15 PM 62.6 °F - 59.0 °F 88% 29.80 in 10.0 mi South 4.6 mph - N/A   Scattered Clouds
11:35 PM 62.6 °F - 59.0 °F 88% 29.80 in 10.0 mi South 8.1 mph - N/A Rain Light Rain
11:55 PM 62.6 °F - 59.0 °F 88% 29.81 in 10.0 mi SSE 11.5 mph - N/A   Scattered Clouds